Location: ????????
(55.0559°N, 39.1270°E)
Time: 01:30:41
(UTC+00:00)

Cosmos 1939 Rocket - Pass Details

Date: 15 November 2025
Orbit: 491 x 528 km, 97.5° (Epoch: 12 December)

Event Time Altitude Azimuth Distance (km) Brightness Sun altitude
Rises 01:44:32 0° 18° (NNE) 2,689 6.6 -27.0°
Reaches altitude 10° 01:46:44 10° 25° (NNE) 1,791 5.8 -26.7°
Maximum altitude 01:50:28 45° 99° (E) 734 3.8 -26.1°
Enters shadow 01:51:08 40° 130° (SE) 790 3.8 -26.1°
